Regional Weather Roundup
Issued by NWS

Home | Current Version | Previous Version | Text Only | Print | Product List | Glossary Off
Versions: 1 2 3 4 5 6 7 8 9 10 11 12 13 14 15 16 17 18 19 20 21 22 23 24 25 26 27 28 29 30 31 32 33 34 35 36 37 38 39 40 41 42 43 44 45 46 47 48 49 50

000
ASUS43 KLSX 210507
RWRMO

WEATHER SUMMARY FOR MISSOURI
NATIONAL WEATHER SERVICE SPRINGFIELD MO
1100 PM CST SAT DEC 20 2014

NOTE: "FAIR" INDICATES FEW OR NO CLOUDS BELOW 12,000 FEET WITH NO
       SIGNIFICANT WEATHER AND/OR OBSTRUCTIONS TO VISIBILITY.
       CURRENT SKY AND/OR WEATHER CONDITIONS ARE NOT AVAILABLE FOR
       CHILLICOTHE AND FARMINGTON.

MOZ001>031-035>038-043-044-053-054-210600-
...NORTHERN AND WESTERN MISSOURI...

CITY           SKY/WX    TMP DP  RH WIND       PRES   REMARKS
KANSAS CTY INT MOCLDY    36  33  89 S14       30.12S WCI  27
KANSAS C DTWN  PTCLDY    39  33  79 S10       30.13F
LEE`S SUMMIT   PTCLDY    37  32  82 S12       30.14S WCI  29
ST JOSEPH      PTCLDY    36  33  89 S9        30.11S WCI  29
CHILLICOTHE      N/A     40  35  83 S8        30.15F
KIRKSVILLE     CLOUDY    38  36  92 S12       30.16F

$$
MOZ066>068-077>081-088>096-101>105-210600-
...SOUTHWEST MISSOURI...

CITY           SKY/WX    TMP DP  RH WIND       PRES   REMARKS
SPRINGFIELD    CLOUDY    41  38  89 S8        30.18S
JOPLIN         CLOUDY    43  35  73 S7        30.18S

$$
MOZ032>034-039>042-045>050-055>058-069>072-210600-
...CENTRAL MISSOURI...

CITY           SKY/WX    TMP DP  RH WIND       PRES   REMARKS
COLUMBIA       CLOUDY    40  35  83 S10       30.20S
JEFFERSON CITY CLOUDY    42  34  73 S6        30.22S
ROLLA          CLOUDY    39  34  82 SW6       30.19S
SEDALIA        CLOUDY    41  35  79 S9        30.19S
WHITEMAN AFB   CLOUDY    39  36  86 S8        30.17S
WARRENSBURG    CLOUDY    34  32  93 SE6       30.17S WCI  29
OSAGE BEACH    CLOUDY    43  34  70 S3        30.20S

$$
MOZ051-052-059>065-210600-
...EAST CENTRAL MISSOURI...

CITY           SKY/WX    TMP DP  RH WIND       PRES   REMARKS
ST LOUIS INTL  CLOUDY    42  33  70 SE9       30.24S
SPIRIT OF STL  CLOUDY    41  34  76 S5        30.23S
ST CHARLES     CLOUDY    38  35  89 E5        30.24S

$$
MOZ072>076-082>087-097>100-106>115-210600-
...SOUTH CENTRAL AND SOUTHEAST MISSOURI...

CITY           SKY/WX    TMP DP  RH WIND       PRES   REMARKS
CAPE GIRARDEAU CLOUDY    40  34  79 CALM      30.28S
FARMINGTON     CLOUDY    39  34  81 E3        30.25S
POPLAR BLUFF   CLOUDY    41  33  73 E3        30.26S
WEST PLAINS    CLOUDY    40  36  86 SE7       30.22S

$$



USA.gov is the U.S. government's official web portal to all federal, state and local government web resources and services.